"Pseudo-MPEC" for P20M336

Created 2019 Feb 19 10:18:07 UT using Find_Orb

Click here for an explanation of pseudo-MPECs

 
 Astrometry: 
     P20M336  C2019 02 04.sPAstrometry?G(!/D:jH88*_redacted;kelOA##FHlw0]sVI7F52
     P20M336  C2019 02 04WQlAclickua1wSI\8o!^xBb.Il_here3*X+:(vL3Bmc)$:7'v)PxF52
     P20M336  C2019 02 04hNtPOfort8RAR?%0$?lTEvlCZJ]qexplanationR4T\fB1`L:5?lF52

Station data:
(F52) Pan-STARRS 2, Haleakala  (N20.707384 W156.255910)  US/Hawaii.

Orbital elements:  P20M336
   Perihelion 2018 Dec 8.607931 +/- 970 TT = 14:35:25 (JD 2458461.107931)
Epoch 2019 Feb  4.0 TT = JDT 2458518.5   Earth MOID: 0.4947   Ma: 0.0046
M  14.03355532 +/- 50               (J2000 ecliptic)          AutoNEOCP
n   0.24452081 +/- 0.139            Peri.  204.09462 +/- 90
a   2.53274905 +/- 0.959            Node   250.44627 +/- 34
e   0.4191787 +/- 0.208             Incl.   10.94787 +/- 37
P   4.03                   H 20.1   G  0.15   U 11.5  SR
q 1.47107441 +/- 2.05    Q 3.59442370 +/- 104
From 3 observations 2019 Feb. 4 (33.6 min); mean residual 0".13
Residuals in arcseconds: 
190204 F52  .12-  .04+    190204 F52  .24+  .08-    190204 F52  .12-  .04+    

Ephemerides (geocentric):
Date (UTC) HH   RA              Dec         delta   r     elong  mag " sig PA
---- -- -- --  -------------   -----------  ------ ------ -----  --- ---- ---
2019 02 19 10  07 56 45.300   -03 43 42.66  .70353 1.6106 143.8 21.4 3509 161
2019 02 19 11  07 56 45.687   -03 43 29.39  .70381 1.6107 143.7 21.4 3524 161
2019 02 19 12  07 56 46.077   -03 43 16.10  .70409 1.6109 143.7 21.4 3539 161
2019 02 19 13  07 56 46.472   -03 43 02.80  .70437 1.6110 143.7 21.4 3554 161
2019 02 19 14  07 56 46.870   -03 42 49.48  .70466 1.6112 143.7 21.4 3569 161
2019 02 19 15  07 56 47.272   -03 42 36.14  .70494 1.6113 143.6 21.4 3584 161
2019 02 19 16  07 56 47.678   -03 42 22.78  .70522 1.6115 143.6 21.4 3600 161
2019 02 19 17  07 56 48.088   -03 42 09.40  .70550 1.6116 143.6 21.4 3615 161
2019 02 19 18  07 56 48.502   -03 41 56.00  .70578 1.6118 143.6 21.4 3630 161
2019 02 19 19  07 56 48.920   -03 41 42.58  .70606 1.6119 143.5 21.4 3646 161
2019 02 19 20  07 56 49.342   -03 41 29.15  .70635 1.6120 143.5 21.4 3661 161
2019 02 19 21  07 56 49.767   -03 41 15.70  .70663 1.6122 143.5 21.4 3677 161
2019 02 19 22  07 56 50.197   -03 41 02.23  .70691 1.6123 143.4 21.4 3692 161
2019 02 19 23  07 56 50.630   -03 40 48.74  .70720 1.6125 143.4 21.5 3708 161
2019 02 20 00  07 56 51.068   -03 40 35.24  .70748 1.6126 143.4 21.5 3723 161
2019 02 20 01  07 56 51.509   -03 40 21.71  .70776 1.6128 143.4 21.5 3739 161
2019 02 20 02  07 56 51.954   -03 40 08.17  .70805 1.6129 143.3 21.5 3755 161
2019 02 20 03  07 56 52.403   -03 39 54.61  .70833 1.6131 143.3 21.5 3771 161
2019 02 20 04  07 56 52.855   -03 39 41.03  .70861 1.6132 143.3 21.5 3786 161
2019 02 20 05  07 56 53.312   -03 39 27.44  .70890 1.6134 143.2 21.5 3802 161
2019 02 20 06  07 56 53.773   -03 39 13.83  .70918 1.6135 143.2 21.5 3818 160
2019 02 20 07  07 56 54.237   -03 39 00.20  .70947 1.6137 143.2 21.5 3834 160
2019 02 20 08  07 56 54.705   -03 38 46.55  .70975 1.6138 143.2 21.5 3850 160
2019 02 20 09  07 56 55.177   -03 38 32.88  .71004 1.6140 143.1 21.5 3866 160
2019 02 20 10  07 56 55.653   -03 38 19.20  .71033 1.6141 143.1 21.5 3882 160
2019 02 20 11  07 56 56.133   -03 38 05.50  .71061 1.6143 143.1 21.5 3898 160
2019 02 20 12  07 56 56.617   -03 37 51.78  .71090 1.6144 143.1 21.5 3914 160
2019 02 20 13  07 56 57.105   -03 37 38.05  .71119 1.6146 143.0 21.5 3930 160
2019 02 20 14  07 56 57.596   -03 37 24.30  .71147 1.6147 143.0 21.5 3947 160
2019 02 20 15  07 56 58.092   -03 37 10.53  .71176 1.6149 143.0 21.5 3963 160
2019 02 20 16  07 56 58.591   -03 36 56.74  .71205 1.6150 142.9 21.5 3979 160
2019 02 20 17  07 56 59.094   -03 36 42.94  .71233 1.6152 142.9 21.5 3996 160
2019 02 20 18  07 56 59.601   -03 36 29.12  .71262 1.6153 142.9 21.5 4012 160
2019 02 20 19  07 57 00.112   -03 36 15.29  .71291 1.6155 142.9 21.5 4028 160
2019 02 20 20  07 57 00.627   -03 36 01.43  .71320 1.6156 142.8 21.5 4045 160
2019 02 20 21  07 57 01.146   -03 35 47.56  .71349 1.6158 142.8 21.5 4061 160
2019 02 20 22  07 57 01.668   -03 35 33.68  .71377 1.6159 142.8 21.5 4078 160
2019 02 20 23  07 57 02.195   -03 35 19.77  .71406 1.6161 142.7 21.5 4095 160
2019 02 21 00  07 57 02.725   -03 35 05.85  .71435 1.6162 142.7 21.5 4111 160
2019 02 21 01  07 57 03.259   -03 34 51.92  .71464 1.6164 142.7 21.5 4128 160
2019 02 21 02  07 57 03.797   -03 34 37.97  .71493 1.6165 142.7 21.5 4145 160
2019 02 21 03  07 57 04.339   -03 34 24.00  .71522 1.6167 142.6 21.5 4162 160
2019 02 21 04  07 57 04.884   -03 34 10.01  .71551 1.6168 142.6 21.5 4178 160
2019 02 21 05  07 57 05.434   -03 33 56.01  .71580 1.6170 142.6 21.5 4195 160
2019 02 21 06  07 57 05.987   -03 33 42.00  .71609 1.6171 142.6 21.5 4212 160
2019 02 21 07  07 57 06.545   -03 33 27.96  .71638 1.6173 142.5 21.5 4229 160
2019 02 21 08  07 57 07.106   -03 33 13.91  .71667 1.6174 142.5 21.5 4246 160
2019 02 21 09  07 57 07.671   -03 32 59.85  .71697 1.6176 142.5 21.5 4263 160